Weather History for Chipley, FL

Change the Weather History Date:

Wednesday, January 16, 2013

  Actual Average (KMAI) Record (KMAI)
Temperature  
Mean Temperature 44 °F 50 °F  
Max Temperature 48 °F 61 °F 81 °F (2013)
Min Temperature 39 °F 39 °F 27 °F (2003)
Degree Days  
Heating Degree Days 22    
Month to date heating degree days  
Since 1 July heating degree days  
Cooling Degree Days 0    
Month to date cooling degree days  
Year to date cooling degree days  
Moisture  
Dew Point 39 °F    
Average Humidity 86    
Maximum Humidity 100    
Minimum Humidity 76    
Precipitation  
Precipitation 0.00 in 0.14 in 1.13 in (2008)
Month to date precipitation 2.43  
Year to date precipitation 2.43  
Sea Level Pressure  
Sea Level Pressure 30.08 in    
Wind  
Wind Speed 7 mph (NNW)    
Max Wind Speed 13 mph    
Max Gust Speed 21 mph    
Visibility 8 miles    
Events      
T = Trace of Precipitation, MM = Missing Value Source: NWS Daily Summary

Daily Weather History Graph

Daily Weather History Graph

Search for Another Location

Airport:

Trip Planner

Search our weather history database for the weather conditions in past years. The results will help you decide how hot, cold, wet, or windy it might be!

Date:

Astronomy

Jan. 16, 2013 Rise Set
Actual Time 6:40 AM CST 5:04 PM CST
Civil Twilight 6:14 AM CST 5:30 PM CST
Nautical Twilight 5:44 AM CST 5:59 PM CST
Astronomical Twilight 5:15 AM CST 6:28 PM CST
Moon 9:41 AM CST 10:27 PM CST
Length of Visible Light 11h 16m
Length of Day
10h 24m
Waxing Crescent, 28% of the Moon is Illuminated
Jan 16
Waxing Crescent
Jan 18
First Quarter
Jan 26
Full
Feb 3
Last Quarter
Feb 10
New

Hourly Weather History & Observations

Time (CST) Temp. Windchill Dew Point Humidity Pressure Visibility Wind Dir Wind Speed Gust Speed Precip Events Conditions
12:15 AM 48.2 °F - 46.4 °F 93% 29.98 in 2.5 mi North 5.8 mph - N/A   Overcast
12:35 AM 46.4 °F 43.5 °F 46.4 °F 100% 29.99 in 2.5 mi North 5.8 mph - N/A   Overcast
12:55 AM 46.4 °F 41.9 °F 46.4 °F 100% 30.00 in 3.0 mi North 9.2 mph - N/A   Overcast
1:15 AM 46.4 °F 42.9 °F 44.6 °F 93% 29.99 in 3.0 mi North 6.9 mph 16.1 mph N/A   Overcast
1:35 AM 46.4 °F 41.9 °F 44.6 °F 93% 30.00 in 5.0 mi North 9.2 mph 17.3 mph N/A   Overcast
1:55 AM 46.4 °F 42.9 °F 44.6 °F 93% 30.00 in 3.0 mi North 6.9 mph - N/A   Overcast
2:15 AM 46.4 °F 42.4 °F 44.6 °F 93% 30.01 in 9.0 mi North 8.1 mph - N/A   Overcast
2:35 AM 46.4 °F 42.4 °F 44.6 °F 93% 30.01 in 7.0 mi North 8.1 mph 17.3 mph N/A   Overcast
2:55 AM 46.4 °F 41.5 °F 44.6 °F 93% 30.01 in 4.0 mi North 10.4 mph 16.1 mph N/A   Overcast
3:15 AM 44.6 °F 40.2 °F 42.8 °F 93% 30.00 in 5.0 mi North 8.1 mph 16.1 mph N/A   Overcast
3:35 AM 44.6 °F 40.2 °F 42.8 °F 93% 30.00 in 5.0 mi North 8.1 mph - N/A   Overcast
3:55 AM 44.6 °F 40.7 °F 42.8 °F 93% 29.99 in 9.0 mi North 6.9 mph - N/A   Overcast
4:15 AM 44.6 °F 40.7 °F 42.8 °F 93% 30.00 in 5.0 mi North 6.9 mph - N/A   Overcast
4:35 AM 44.6 °F 40.2 °F 42.8 °F 93% 30.00 in 4.0 mi North 8.1 mph - N/A   Overcast
4:55 AM 44.6 °F 40.7 °F 42.8 °F 93% 30.01 in 4.0 mi North 6.9 mph - N/A   Overcast
5:15 AM 44.6 °F 39.7 °F 41.0 °F 87% 30.00 in 5.0 mi NNE 9.2 mph - N/A   Overcast
5:35 AM 42.8 °F 39.3 °F 41.0 °F 93% 30.02 in 5.0 mi North 5.8 mph - N/A   Overcast
5:55 AM 44.6 °F 40.2 °F 41.0 °F 87% 30.03 in 7.0 mi North 8.1 mph - N/A   Overcast
6:35 AM 42.8 °F 37.5 °F 39.2 °F 87% 30.04 in 4.0 mi North 9.2 mph - N/A   Overcast
6:55 AM 42.8 °F 38.6 °F 39.2 °F 87% 30.05 in 5.0 mi North 6.9 mph 17.3 mph N/A   Overcast
7:15 AM 42.8 °F 38.6 °F 39.2 °F 87% 30.06 in 4.0 mi North 6.9 mph 16.1 mph N/A   Overcast
7:35 AM 42.8 °F 38.6 °F 39.2 °F 87% 30.06 in 5.0 mi NNE 6.9 mph - N/A   Overcast
7:55 AM 42.8 °F 39.3 °F 39.2 °F 87% 30.07 in 10.0 mi North 5.8 mph - N/A   Overcast
8:15 AM 42.8 °F 38.0 °F 39.2 °F 87% 30.07 in 10.0 mi NNE 8.1 mph - N/A   Overcast
8:35 AM 42.8 °F 39.3 °F 39.2 °F 87% 30.09 in 10.0 mi North 5.8 mph 18.4 mph N/A   Overcast
8:55 AM 42.8 °F 38.6 °F 39.2 °F 87% 30.11 in 10.0 mi North 6.9 mph - N/A   Overcast
9:15 AM 42.8 °F 37.5 °F 39.2 °F 87% 30.10 in 7.0 mi NNW 9.2 mph - N/A   Overcast
9:35 AM 42.8 °F 37.5 °F 39.2 °F 87% 30.11 in 10.0 mi NNW 9.2 mph - N/A   Overcast
9:55 AM 42.8 °F 36.2 °F 39.2 °F 87% 30.11 in 10.0 mi North 12.7 mph 20.7 mph N/A   Overcast
10:15 AM 42.8 °F 38.6 °F 37.4 °F 81% 30.12 in 10.0 mi North 6.9 mph 18.4 mph N/A   Overcast
10:35 AM 42.8 °F 38.0 °F 37.4 °F 81% 30.11 in 10.0 mi North 8.1 mph - N/A   Overcast
10:55 AM 42.8 °F 38.6 °F 37.4 °F 81% 30.10 in 10.0 mi North 6.9 mph - N/A   Overcast
11:15 AM 42.8 °F 38.6 °F 37.4 °F 81% 30.10 in 10.0 mi NNW 6.9 mph - N/A   Overcast
11:35 AM 42.8 °F 38.6 °F 37.4 °F 81% 30.10 in 10.0 mi North 6.9 mph - N/A   Overcast
11:55 AM 42.8 °F 39.3 °F 37.4 °F 81% 30.09 in 10.0 mi NNW 5.8 mph 18.4 mph N/A   Overcast
12:15 PM 42.8 °F 37.5 °F 37.4 °F 81% 30.08 in 10.0 mi North 9.2 mph 17.3 mph N/A   Overcast
12:35 PM 42.8 °F 38.0 °F 39.2 °F 87% 30.06 in 10.0 mi NNW 8.1 mph 17.3 mph N/A   Overcast
12:55 PM 42.8 °F 37.0 °F 37.4 °F 81% 30.07 in 10.0 mi NNW 10.4 mph 16.1 mph N/A   Overcast
1:15 PM 44.6 °F 40.7 °F 37.4 °F 76% 30.08 in 10.0 mi NNW 6.9 mph 16.1 mph N/A   Overcast
1:35 PM 44.6 °F 40.7 °F 37.4 °F 76% 30.06 in 10.0 mi NW 6.9 mph - N/A   Overcast
2:15 PM 44.6 °F - 37.4 °F 76% 30.05 in 10.0 mi Calm Calm - N/A   Overcast
2:35 PM 44.6 °F 40.7 °F 39.2 °F 81% 30.04 in 10.0 mi NNW 6.9 mph - N/A   Overcast
2:55 PM 44.6 °F 40.7 °F 39.2 °F 81% 30.05 in 10.0 mi NNW 6.9 mph - N/A   Overcast
3:15 PM 44.6 °F 41.4 °F 39.2 °F 81% 30.05 in 10.0 mi WNW 5.8 mph - N/A   Overcast
3:35 PM 44.6 °F 38.8 °F 39.2 °F 81% 30.06 in 10.0 mi NW 11.5 mph 16.1 mph N/A   Overcast
3:55 PM 42.8 °F 37.5 °F 37.4 °F 81% 30.08 in 10.0 mi WNW 9.2 mph - N/A   Overcast
4:15 PM 42.8 °F 37.0 °F 37.4 °F 81% 30.08 in 10.0 mi NW 10.4 mph 17.3 mph N/A   Overcast
4:35 PM 42.8 °F 37.0 °F 37.4 °F 81% 30.11 in 10.0 mi WNW 10.4 mph 16.1 mph N/A   Overcast
4:55 PM 41.0 °F 36.4 °F 37.4 °F 87% 30.12 in 10.0 mi NW 6.9 mph - N/A   Overcast
5:15 PM 41.0 °F 36.4 °F 37.4 °F 87% 30.12 in 10.0 mi WNW 6.9 mph - N/A   Overcast
5:55 PM 41.0 °F 37.1 °F 37.4 °F 87% 30.12 in 10.0 mi NW 5.8 mph - N/A   Overcast
6:15 PM 42.8 °F 39.3 °F 37.4 °F 81% 30.12 in 10.0 mi NNW 5.8 mph - N/A   Overcast
6:35 PM 41.0 °F 37.1 °F 37.4 °F 87% 30.12 in 10.0 mi NW 5.8 mph - N/A   Overcast
6:55 PM 42.8 °F 38.0 °F 35.6 °F 76% 30.13 in 10.0 mi NW 8.1 mph - N/A   Overcast
7:15 PM 41.0 °F 37.1 °F 35.6 °F 81% 30.12 in 10.0 mi NW 5.8 mph - N/A   Overcast
7:35 PM 41.0 °F 38.0 °F 35.6 °F 81% 30.12 in 10.0 mi NW 4.6 mph - N/A   Overcast
7:55 PM 41.0 °F 35.8 °F 35.6 °F 81% 30.14 in 10.0 mi West 8.1 mph - N/A   Overcast
8:15 PM 41.0 °F 38.0 °F 35.6 °F 81% 30.15 in 10.0 mi West 4.6 mph - N/A   Overcast
8:35 PM 41.0 °F 39.0 °F 35.6 °F 81% 30.15 in 10.0 mi WNW 3.5 mph - N/A   Overcast
8:55 PM 39.2 °F 34.2 °F 35.6 °F 87% 30.15 in 10.0 mi West 6.9 mph - N/A   Overcast
9:15 PM 39.2 °F 35.9 °F 35.6 °F 87% 30.15 in 10.0 mi West 4.6 mph - N/A   Overcast
9:35 PM 39.2 °F 33.6 °F 35.6 °F 87% 30.15 in 10.0 mi West 8.1 mph - N/A   Overcast
9:55 PM 39.2 °F 34.2 °F 35.6 °F 87% 30.15 in 10.0 mi West 6.9 mph - N/A   Overcast
10:15 PM 39.2 °F 34.2 °F 35.6 °F 87% 30.16 in 10.0 mi WNW 6.9 mph - N/A   Overcast
10:35 PM 39.2 °F 33.6 °F 35.6 °F 87% 30.16 in 10.0 mi WNW 8.1 mph - N/A   Overcast
10:55 PM 39.2 °F 32.5 °F 35.6 °F 87% 30.16 in 10.0 mi WNW 10.4 mph 17.3 mph N/A   Overcast
11:15 PM 39.2 °F 34.2 °F 35.6 °F 87% 30.16 in 10.0 mi West 6.9 mph - N/A   Overcast
11:35 PM 39.2 °F 34.2 °F 35.6 °F 87% 30.15 in 10.0 mi West 6.9 mph 16.1 mph N/A   Overcast
11:55 PM 39.2 °F 34.2 °F 35.6 °F 87% 30.16 in 10.0 mi West 6.9 mph - N/A   Overcast